Weather History for Huntsville, AL

Change the Weather History Date:

Tuesday, January 3, 2012

  Actual Average Record
Temperature  
Mean Temperature 28 °F 41 °F  
Max Temperature 36 °F 51 °F 72 °F (2000)
Min Temperature 20 °F 32 °F 5 °F (1928)
Degree Days  
Heating Degree Days 37 24  
Month to date heating degree days 80 72  
Since 1 July heating degree days 1186 1253  
Cooling Degree Days 0 0  
Month to date cooling degree days 0 0  
Year to date cooling degree days 0 0  
Moisture  
Dew Point 11 °F    
Average Humidity 56    
Maximum Humidity 74    
Minimum Humidity 38    
Precipitation  
Precipitation T in 0.16 in 4.83 in (1982)
Month to date precipitation T 0.47  
Year to date precipitation T 0.47  
Snow  
Snow T in - - ()
Month to date snowfall T  
Since 1 July snowfall T  
Snow Depth 0.00 in    
Sea Level Pressure  
Sea Level Pressure 30.46 in    
Wind  
Wind Speed 6 mph (NW)    
Max Wind Speed 18 mph    
Max Gust Speed 29 mph    
Visibility 10 miles    
Events Snow    
T = Trace of Precipitation, MM = Missing Value Source: NWS Daily Summary

Daily Weather History Graph

Daily Weather History Graph

Search for Another Location

Airport:

Trip Planner

Search our weather history database for the weather conditions in past years. The results will help you decide how hot, cold, wet, or windy it might be!

Date:

Astronomy

Jan. 03, 2012 Rise Set
Actual Time 6:54 AM CST 4:48 PM CST
Civil Twilight 6:26 AM CST 5:16 PM CST
Nautical Twilight 5:55 AM CST 5:47 PM CST
Astronomical Twilight 5:24 AM CST 6:18 PM CST
Moon 12:32 PM CST (1/3) 1:49 AM CST (1/3)
Length of Visible Light 10h 49m
Length of Day
9h 54m
Waxing Gibbous, 73% of the Moon is Illuminated
Jan 3
Waxing Gibbous
Jan 9
Full
Jan 16
Last Quarter
Jan 23
New
Jan 30
First Quarter

Hourly Weather History & Observations

Time (CST) Temp. Windchill Dew Point Humidity Pressure Visibility Wind Dir Wind Speed Gust Speed Precip Events Conditions
12:53 AM 28.0 °F 17.5 °F 12.9 °F 53% 30.41 in 9.0 mi North 12.7 mph - 0.00 in Snow Light Snow
1:53 AM 27.0 °F 15.2 °F 12.9 °F 56% 30.43 in 10.0 mi NNW 15.0 mph 21.9 mph 0.00 in Snow Light Snow
2:53 AM 24.1 °F 13.7 °F 6.1 °F 46% 30.46 in 10.0 mi North 10.4 mph 21.9 mph 0.00 in   Scattered Clouds
3:53 AM 23.0 °F 14.7 °F 6.1 °F 48% 30.47 in 10.0 mi NNW 6.9 mph - N/A   Partly Cloudy
4:53 AM 21.9 °F 11.0 °F 6.1 °F 51% 30.49 in 10.0 mi North 10.4 mph 20.7 mph N/A   Clear
5:53 AM 21.0 °F 11.4 °F 6.1 °F 53% 30.52 in 10.0 mi North 8.1 mph - N/A   Partly Cloudy
6:53 AM 21.0 °F 13.4 °F 7.0 °F 55% 30.53 in 10.0 mi North 5.8 mph - N/A   Partly Cloudy
7:53 AM 23.0 °F 18.4 °F 8.6 °F 54% 30.52 in 10.0 mi NNW 3.5 mph - N/A   Partly Cloudy
8:53 AM 26.1 °F 19.4 °F 9.0 °F 49% 30.57 in 10.0 mi NNW 5.8 mph - N/A   Partly Cloudy
9:53 AM 27.0 °F 19.5 °F 10.0 °F 49% 30.57 in 10.0 mi North 6.9 mph - N/A   Partly Cloudy
10:53 AM 28.9 °F 21.9 °F 10.0 °F 45% 30.54 in 10.0 mi North 6.9 mph - N/A   Clear
11:53 AM 30.9 °F 22.8 °F 10.0 °F 42% 30.51 in 10.0 mi NNW 9.2 mph - N/A   Partly Cloudy
12:53 PM 32.0 °F 28.7 °F 10.0 °F 40% 30.48 in 10.0 mi West 3.5 mph - N/A   Partly Cloudy
1:53 PM 34.0 °F 27.2 °F 12.0 °F 40% 30.47 in 10.0 mi West 8.1 mph - N/A   Partly Cloudy
2:53 PM 35.6 °F 29.9 °F 12.2 °F 38% 30.44 in 10.0 mi West 6.9 mph - N/A   Partly Cloudy
3:53 PM 34.0 °F 28.8 °F 10.0 °F 37% 30.45 in 10.0 mi WNW 5.8 mph - N/A   Partly Cloudy
4:53 PM 30.9 °F 26.2 °F 12.9 °F 47% 30.43 in 10.0 mi West 4.6 mph - N/A   Partly Cloudy
5:53 PM 30.0 °F - 12.0 °F 47% 30.44 in 10.0 mi Calm Calm - N/A   Clear
6:53 PM 26.1 °F 21.9 °F 14.0 °F 60% 30.43 in 10.0 mi SSW 3.5 mph - N/A   Clear
7:53 PM 26.6 °F 21.2 °F 15.8 °F 64% 30.39 in 10.0 mi South 4.6 mph - N/A   Clear
8:53 PM 26.6 °F - 15.8 °F 64% 30.39 in 10.0 mi Calm Calm - N/A   Clear
9:53 PM 25.0 °F 20.7 °F 16.0 °F 69% 30.40 in 10.0 mi ESE 3.5 mph - N/A   Clear
10:53 PM 23.0 °F 18.4 °F 16.0 °F 74% 30.38 in 10.0 mi ESE 3.5 mph - N/A   Clear
11:53 PM 23.0 °F 17.0 °F 17.1 °F 78% 30.38 in 10.0 mi SE 4.6 mph - N/A   Clear